Location: Courçay
(47.2523°N, 0.8761°E)
Time: 07:36:14
(UTC+00:00)

Cosmos 44 Rocket - Pass Details

Date: 18 November 2025
Orbit: 637 x 741 km, 65.1° (Epoch: 06 December)

Event Time Altitude Azimuth Distance (km) Brightness Sun altitude
Rises 18:16:33 0° 231° (SW) 2,993 7.5 -19.9°
Reaches altitude 10° 18:18:52 10° 236° (SW) 2,099 6.7 -20.3°
Maximum altitude 18:23:32 52° 313° (NW) 858 3.9 -21.1°
Enters shadow 18:26:12 25° 19° (NNE) 1,402 4.6 -21.6°
